Zurück zum Katalog

STARLINK-11340

AktivKommunikationVLEO
NORAD 61690·PAYLOAD·🇺🇸 United States

Gestartet Oct 30, 2024 von Vandenberg Space Force Base

Loading…

Nächste Überflüge (nächste 24 Stunden)

TLE

AktuellSource: CelesTrak SupGP

Epoche: Sep 14, 2026, 15:04 UTC

1 61690C 24195D   26257.62826389  .00023128  00000+0  19057-3 0  2576
2 61690  53.1565 175.0413 0001169  92.9552 356.3737 15.69690472    13

Verfolge STARLINK-11340 in Echtzeit mit AllMySat

Download on the App Store